Regional Weather Roundup
Issued by NWS

Home | Current Version | Previous Version | Graphics & Text | Print | Product List | Glossary On
Versions: 1 2 3 4 5 6 7 8 9 10 11 12 13 14 15 16 17 18 19 20 21 22 23 24 25 26 27 28 29 30 31 32 33 34 35 36 37 38 39 40 41 42 43 44 45 46 47 48 49 50
000
ASUS43 KOAX 240110
RWRNE

WEATHER ROUNDUP FOR NEBRASKA
NATIONAL WEATHER SERVICE OMAHA NE
800 PM CDT TUE MAY 23 2017

NOTES: SATELLITE DATA IS BEING USED TO AUGMENT CLOUD COVER ABOVE
       12000 FEET.
       "FAIR" INDICATES FEW OR NO CLOUDS BELOW 12,000 FEET WITH NO
       SIGNIFICANT WEATHER AND/OR OBSTRUCTIONS TO VISIBILITY.

  * THESE STATIONS DO NOT REPORT WEATHER SUCH AS RAIN...SNOW OR FOG.

NEZ001>004-019>022-054>056-240200-
NEBRASKA PANHANDLE

CITY           SKY/WX    TMP DP  RH WIND       PRES   REMARKS
SCOTTSBLUFF    SUNNY     61  36  39 N13       30.04S
ALLIANCE       SUNNY     57  35  43 N14       30.03S
CHADRON        SUNNY     58  38  47 NE10      30.03S
GORDON         FAIR      56  36  46 N14       30.03S
KIMBALL        SUNNY     58  30  35 N15G21    30.07S
SIDNEY         SUNNY     58  37  45 N14       30.04S
$$

NEZ057>060-069>072-079>082-240200-
SOUTHWEST NEBRASKA

CITY           SKY/WX    TMP DP  RH WIND       PRES   REMARKS
NORTH PLATTE   CLEAR     57  35  43 N17       29.98S
IMPERIAL       SUNNY     58  33  39 N17G24    30.00F
LEXINGTON      PTCLDY    56  40  55 N18       29.96S
MCCOOK         CLEAR     59  35  40 N23G32    29.97S
OGALLALA       SUNNY     60  34  38 N15G24    30.01R
$$

NEZ005>010-023>029-035>040-094-240200-
NORTH CENTRAL NEBRASKA

CITY           SKY/WX    TMP DP  RH WIND       PRES   REMARKS
VALENTINE      MOSUNNY   56  37  49 N16G23    30.00S
AINSWORTH      MOCLDY    51  42  71 N16       29.99R
BROKEN BOW     CLOUDY    55  40  56 N22       29.95S
O`NEILL        CLOUDY    50  44  78 N10       29.95S
ORD            CLOUDY    52  39  61 N17G24    29.93S
THEDFORD       MOSUNNY   54  39  56 N17G25    29.99S
$$

NEZ041-046>049-061>064-073>077-083>087-240200-
SOUTH CENTRAL NEBRASKA

CITY           SKY/WX    TMP DP  RH WIND       PRES   REMARKS
GRAND ISLAND   CLOUDY    53  42  66 N20G25    29.93R
AURORA         CLOUDY    54  40  59 N18       29.91S
HASTINGS       CLOUDY    54  41  61 N18G26    29.93S
HEBRON         CLOUDY    56  43  62 NW10G16   29.89S
HOLDREGE       CLOUDY    54  39  57 N12G20    29.94F
KEARNEY *      CLOUDY    54  39  58 N15       29.95R
YORK           CLOUDY    54  41  62 NW13      29.90R
$$

NEZ011>018-030>034-042>045-240200-
NORTHEAST NEBRASKA

CITY           SKY/WX    TMP DP  RH WIND       PRES   REMARKS
NORFOLK        CLOUDY    53  44  71 NW16      29.87S
ALBION         CLOUDY    54  44  68 N16G22    29.92R
BLAIR          CLOUDY    51  47  85 N8        29.83S
FREMONT        CLOUDY    55  45  67 NW12      29.86R
TEKAMAH        HVY RAIN  50  47  89 N13       29.84S FOG
WAYNE          CLOUDY    51  51  99 NW10      29.86S
$$

NEZ050>053-065>068-078-088>093-240200-
SOUTHEAST NEBRASKA

CITY           SKY/WX    TMP DP  RH WIND       PRES   REMARKS
LINCOLN        CLOUDY    54  47  77 N13       29.87S
OMAHA EPPLEY   CLOUDY    53  45  74 N7        29.83S
BEATRICE       MOCLDY    55  45  69 N15       29.86S
FALLS CITY     CLOUDY    57  45  64 NW16G23   29.81S
NEBRASKA CITY  CLOUDY    56  43  62 N12       29.84R
PLATTSMOUTH    CLOUDY    53  46  77 NW7       29.84S
$$

NEZ044-045-051>053-067-240200-
OMAHA AREA

CITY           SKY/WX    TMP DP  RH WIND       PRES   REMARKS
OMAHA EPPLEY   CLOUDY    53  45  74 N7        29.83S
BLAIR          CLOUDY    51  47  85 N8        29.83S
FREMONT        CLOUDY    55  45  67 NW12      29.86R
MILLARD        CLOUDY    57  47  67 N6        29.84S
OFFUTT AFB     CLOUDY    54  47  77 N8G17     29.83R
PLATTSMOUTH    CLOUDY    53  46  77 NW7       29.84S
WAHOO          CLOUDY    54  45  72 NW12G18   29.85S
$$




USA.gov is the U.S. government's official web portal to all federal, state and local government web resources and services.